Regional Weather Roundup
Issued by NWS

Home | Current Version | Previous Version | Text Only | Print | Product List | Glossary On
Versions: 1 2 3 4 5 6 7 8 9 10 11 12 13 14 15 16 17 18 19 20 21 22 23 24 25 26 27 28 29 30 31 32 33 34 35 36 37 38 39 40 41 42 43 44 45 46 47 48 49 50
000
ASUS43 KMPX 250401
RWRMN
WEATHER ROUNDUP FOR MINNESOTA
NATIONAL WEATHER SERVICE TWIN CITIES/CHANHASSEN MN
1100 PM CDT MON JUL 24 2017


NOTE: "FAIR" INDICATES FEW OR NO CLOUDS BELOW 12,000 FEET WITH NO
SIGNIFICANT WEATHER AND/OR OBSTRUCTIONS TO VISIBILITY. N/A MEANS
CURRENT SKY AND/OR WEATHER CONDITIONS ARE NOT AVAILABLE.

MNZ060>063-068>070-250500-
   Twin Cities Metro

CITY           SKY/WX    TMP DP  RH WIND       PRES   REMARKS
TWIN CITIES    MOCLDY    70  59  68 S9        30.05R
ST PAUL        CLOUDY    68  62  81 SE10      30.03F
CRYSTAL        PTCLDY    70  58  65 S8        30.04R
BLAINE         PTCLDY    70  61  73 S7        30.05R
LAKEVILLE      CLEAR     63  63 100 SE5       30.04R
EDEN PRAIRIE   PTCLDY    70  61  73 E6        30.03R
SOUTH ST PAUL  CLOUDY    69  60  73 SE8       30.03S
LAKE ELMO      FAIR      66  61  82 SE8       30.05F
$$
MNZ001>005-007-008-013>017-022>024-027-028-250500-
   Northwest Minnesota

CITY           SKY/WX    TMP DP  RH WIND       PRES   REMARKS
BEMIDJI        CLOUDY    64  59  83 S6        29.98R
HALLOCK        CLEAR     68  64  88 S8        29.88R
ROSEAU         CLEAR     66  61  82 S8        29.89F
WARROAD        CLEAR     66  63  88 S8        29.91S
CROOKSTON      CLOUDY    66  63  88 SE9       29.89F
FOSSTON        CLEAR     64  59  82 SE7       29.95F
DETROIT LAKES  CLEAR     68  61  77 S8        29.98R
MOORHEAD       CLEAR     70  63  78 SE13G20   29.91F
PARK RAPIDS    CLEAR     68  61  78 S5        29.99R
MAHNOMEN       FAIR      65  61  85 SE6       29.95S
$$
MNZ006-009>011-018-025>026-250500-
   North Central Minnesota

CITY           SKY/WX    TMP DP  RH WIND       PRES   REMARKS
BAUDETTE       CLEAR     65  59  81 SE9       29.93S
FLAG ISLAND    CLEAR     72  63  73 S13G20    29.89S HAZE
INTL FALLS     CLEAR     64  56  75 SE5       29.97S
WASKISH        CLEAR     64  61  88 SE3       29.96R
BIG FORK       PTCLDY    63  59  88 SE5       29.98F
LONGVILLE      PTCLDY    63  61  94 CALM      29.98F
GRAND RAPIDS   CLOUDY    65  60  84 SE8       30.02S
CRANE LAKE     CLOUDY    55  54  94 CALM      30.03R
ORR            CLOUDY    61  54  77 SE5       29.99S
COOK           PTCLDY    63  57  82 E3        30.03R
WALKER         FAIR      66  59  79 SE5       29.98S
$$
MNZ012-019>021-037-250500-
   Northeast Minnesota

CITY           SKY/WX    TMP DP  RH WIND       PRES   REMARKS
DULUTH         CLOUDY    58  54  86 E8        30.04S
ELY            CLOUDY    61  52  72 SE3       30.05R
HIBBING        PTCLDY    58  56  93 SE6       30.02S
EVELETH        PTCLDY    60  52  75 CALM      30.05R
DULUTH HARBOR  CLOUDY    63  59  88 NE7       30.04S
TWO HARBORS    CLOUDY    61  55  82 NE3       30.04S
SILVER BAY     PTCLDY    57  52  82 N3        30.04F
GRAND MARAIS     N/A     55  51  86 CALM      30.05S
G MARAIS ARPRT CLEAR     54  46  76 CALM      30.10S
$$
MNZ029>031-032-039>041-046>048-054>057-064-250500-
   West Central Minnesota

CITY           SKY/WX    TMP DP  RH WIND       PRES   REMARKS
FERGUS FALLS   CLOUDY    70  63  78 SE13      29.94F
WHEATON        CLOUDY    70  63  78 SE14G21   29.92F
MORRIS         LGT RAIN  70  64  83 SE13      29.94F
ALEXANDRIA     PTCLDY    68  63  84 S16G24    29.99R
ELBOW LAKE     FAIR      67  64  89 SE9       29.96S
WADENA         CLOUDY    64  61  88 S3        29.99R
GLENWOOD       CLOUDY    66  63  88 SE10G18   29.99S
APPLETON       MOCLDY    73  63  68 SE14      29.95F
BENSON         CLOUDY    72  63  73 S13       29.98R
ORTONVILLE     CLOUDY    72  63  73 SE12      29.91F
MADISON        CLOUDY    75  64  69 SE13G18   29.94F
WILLMAR        FAIR      70  63  78 SE9       30.01S
$$
MNZ033>034-036-042>043-049>051-058-059-250500-
   Central Minnesota

CITY           SKY/WX    TMP DP  RH WIND       PRES   REMARKS
ST CLOUD       LGT RAIN  67  62  84 E14G20    29.96F
SAUK CENTRE    FAIR      67  62  86 SE10      29.99R
PAYNESVILLE    CLOUDY    69  63  81 SE13      30.01R
AITKIN         MOCLDY    66  61  82 SE8       29.99F
PINE RIVER     MOCLDY    66  61  82 S6        30.01S
BRAINERD       PTCLDY    68  60  75 SE10      29.98F
STAPLES        PTCLDY    68  57  68 S9G16     29.99R
LONG PRAIRIE   FAIR      64  61  88 SE10G17   29.99R
LITTLE FALLS   MOCLDY    66  59  77 SE12      29.94F
LITCHFIELD     CLOUDY    72  63  73 SE8       30.02F
BUFFALO        PTCLDY    66  60  79 CALM      30.05S
MAPLE LAKE     CLOUDY    68  63  83 E5        30.03F
HUTCHINSON     CLEAR     68  63  84 E6        30.04R
$$
MNZ037-044-045-052-053-250500-
   East Central Minnesota

CITY           SKY/WX    TMP DP  RH WIND       PRES   REMARKS
PRINCETON      CLOUDY    66  63  88 CALM      30.05S
MORA           PTCLDY    64  59  82 CALM      30.06R
CAMBRIDGE      PTCLDY    70  57  64 S5        30.04R
RUSH CITY      PTCLDY    65  59  81 S3        30.05R
MOOSE LAKE     CLOUDY    66  57  72 CALM      30.01S
HINCKLEY       FAIR      64  61  88 S5        30.05R
CLOQUET        CLOUDY    61  54  77 E3        30.03F
MCGREGOR       CLOUDY    64  61  88 SE6       30.03R
$$
MNZ071>073-080-081-089-090-097-098-250500-
   Southwest Minnesota

CITY           SKY/WX    TMP DP  RH WIND       PRES   REMARKS
MONTEVIDEO     CLOUDY    70  63  78 SE10      29.97S
GRANITE FALLS  CLOUDY    72  64  76 E10       29.99F
CANBY          PTCLDY    71  64  80 E9        29.95S
MARSHALL       CLOUDY    70  65  84 SE13      29.95F
REDWOOD FALLS  CLOUDY    69  62  78 E8        30.00R
OLIVIA         CLOUDY    70  63  78 E12       30.00R
PIPESTONE      PTCLDY    72  63  73 S12G21    29.96R
WINDOM         CLOUDY    70  63  78 SE9       30.00F
WORTHINGTON    CLEAR     69  63  81 SE9       29.99F
JACKSON        CLEAR     68  61  77 SE7       30.01F
TRACY          CLEAR     71  65  82 SE12      29.97S
SLAYTON        CLEAR     67  63  84 SE9       29.99F
$$
MNZ065>067-074>077-082>085-091>093-250500-
   South Central Minnesota

CITY           SKY/WX    TMP DP  RH WIND       PRES   REMARKS
MANKATO        CLEAR     67  63  87 SE10      30.03R
NEW ULM        CLEAR     70  61  73 SE12G17   30.00S
ST JAMES       CLEAR     66  63  88 SE8       30.02R
FAIRMONT       CLEAR     68  64  87 SE10      30.02S
GLENCOE        PTCLDY    68  64  89 E5        30.03R
FARIBAULT      CLEAR     66  61  82 SE9       30.04F
OWATONNA       CLEAR     64  61  88 SE9       30.05F
WASECA         CLEAR     63  59  88 SE6       30.05S
ALBERT LEA     CLEAR     66  63  88 SE7       30.06S
$$
MNZ078>079-086>088-094>096-250500-
   Southeast Minnesota

CITY           SKY/WX    TMP DP  RH WIND       PRES   REMARKS
ROCHESTER      CLEAR     62  59  90 SE6       30.08R
RED WING       PTCLDY    68  57  68 SE6       30.04S
STANTON        CLEAR     66  61  82 SE5       30.04R
DODGE CENTER   CLEAR     61  57  88 SE5       30.07S
WINONA         CLEAR     64  59  82 SE5       30.07F
AUSTIN         CLEAR     63  59  88 SE5       30.06F
PRESTON        CLEAR     64  59  84 SE6       30.09S
$$
ABBREVIATIONS USED IN REMARKS
   TC - TEMPERATURES IN CELSIUS
  WCI - WIND CHILL INDEX
   HX - HEAT INDEX
  VSB - VISIBILITY
$$




USA.gov is the U.S. government's official web portal to all federal, state and local government web resources and services.